CST,Max TemperatureF,Mean TemperatureF,Min TemperatureF,Max Dew PointF,MeanDew PointF,Min DewpointF,Max Humidity, Mean Humidity, Min Humidity, Max Sea Level PressureIn, Mean Sea Level PressureIn, Min Sea Level PressureIn, Max VisibilityMiles, Mean VisibilityMiles, Min VisibilityMiles, Max Wind SpeedMPH, Mean Wind SpeedMPH, Max Gust SpeedMPH,PrecipitationIn, CloudCover, Events, WindDirDegrees
2012-11-1,62,45,28,38,31,25,89,54,29,30.04,29.96,29.88,10,8,2,9,4,,0.00,4,,224
2012-11-2,59,49,41,39,36,34,79,63,42,30.08,30.01,29.88,10,9,2,8,6,,0.00,0,,26
2012-11-3,63,52,39,39,36,34,86,64,42,30.17,30.06,29.99,10,10,10,15,6,21,0.00,4,,47
2012-11-4,54,42,30,35,32,28,100,79,43,30.26,30.21,30.18,10,6,1,8,4,,0.00,0,,339
2012-11-5,45,42,39,39,37,34,93,82,71,30.18,30.12,30.09,10,8,5,8,2,,0.05,8,Rain,86
2012-11-6,48,42,35,43,39,34,100,86,63,30.08,30.02,29.95,10,6,1,9,2,,0.03,7,Rain,254
2012-11-7,48,42,34,41,38,31,93,80,66,30.21,30.06,29.94,10,9,4,16,6,20,0.01,7,Rain,313
2012-11-8,57,42,28,39,33,27,100,78,45,30.28,30.21,30.13,10,6,0,12,2,,0.00,0,,177
2012-11-9,69,54,39,53,44,34,82,63,45,30.15,30.08,30.01,10,10,10,24,11,31,0.00,0,,184
2012-11-10,71,62,54,52,47,41,69,57,50,30.12,30.07,30.02,10,10,10,23,15,32,0.00,0,,190
2012-11-11,69,60,50,55,51,47,100,78,56,30.06,30.00,29.88,10,7,2,26,15,39,0.77,7,Rain,241
2012-11-12,50,40,28,48,30,20,94,73,37,30.47,30.28,30.03,10,9,4,20,11,30,0.49,4,Rain,299
2012-11-13,48,36,24,29,25,21,96,70,36,30.56,30.50,30.47,10,10,10,6,1,,0.00,0,,11
2012-11-14,46,37,28,29,27,25,96,76,42,30.52,30.45,30.37,10,10,8,7,1,,0.00,1,,42
2012-11-15,50,38,25,33,28,22,96,76,43,30.43,30.38,30.35,10,8,5,4,0,,0.00,0,,350
2012-11-16,55,42,28,34,29,26,96,71,35,30.48,30.44,30.40,10,9,4,6,1,,0.00,0,,40
2012-11-17,57,42,26,35,29,23,92,72,37,30.54,30.47,30.42,10,8,4,6,1,,0.00,0,,74
2012-11-18,62,44,26,37,31,25,96,69,31,30.44,30.38,30.33,10,8,4,6,1,,0.00,0,,149
2012-11-19,63,48,33,41,35,30,93,65,35,30.33,30.25,30.15,10,10,7,10,3,,0.00,4,,184
2012-11-20,66,55,44,49,44,39,96,70,52,30.18,30.12,30.05,10,9,3,9,4,,0.00,2,,278
2012-11-21,62,48,35,48,41,35,100,91,56,30.31,30.22,30.18,8,2,0,4,2,,0.00,1,Fog,265
2012-11-22,66,50,33,51,39,32,100,86,45,30.19,30.14,30.02,10,4,0,20,5,26,0.07,1,Fog-Rain-Thunderstorm,183
2012-11-23,54,42,30,52,30,20,93,62,42,30.36,30.24,30.06,10,10,8,20,10,29,0.01,2,,313
2012-11-24,36,30,24,22,20,17,81,66,50,30.39,30.28,30.11,10,10,10,9,5,,0.00,0,,280
2012-11-25,55,42,30,32,27,22,88,59,34,30.09,30.02,29.94,10,10,10,16,10,,0.00,0,,202
2012-11-26,51,40,28,36,31,25,92,74,56,30.35,30.18,30.06,10,10,9,17,4,24,0.03,5,Rain,14
2012-11-27,41,33,21,26,23,19,92,73,51,30.46,30.39,30.35,10,10,7,12,6,,0.00,0,,336
2012-11-28,50,36,21,28,23,18,92,71,35,30.48,30.42,30.37,10,9,6,4,1,,0.00,0,,162
2012-11-29,55,40,26,31,26,23,89,57,29,30.36,30.27,30.19,10,10,7,22,8,29,0.00,0,,187
2012-11-30,61,51,41,48,36,26,83,59,44,30.20,30.17,30.12,10,10,9,16,10,20,0.00,0,,199